Tracking 27107 objects as of 20-Mar-2023
HD Live streaming from Space Station
objects crossing your sky now

STARLINK-4384

Track STARLINK-4384 now!
10-day predictions
STARLINK-4384 is classified as:


NORAD ID: 53218
Int'l Code: 2022-084AF
Perigee: 568.9 km
Apogee: 571.3 km
Inclination: 97.7 °
Period: 95.9 minutes
Semi major axis: 6941 km
RCS: Unknown
Launch date: July 22, 2022
Source: United States (US)
Launch site: AIR FORCE WESTERN TEST RANGE (AFWTR)
Your satellite tracking list
Your tracking list is empty




NASA's NSSDC Master Catalog

Two Line Element Set (TLE):
1 53218U 22084AF  23079.17685312  .00001308  00000-0  10640-3 0  9995
2 53218  97.6563 141.5292 0001696 101.4806 258.6608 15.01268183 36462
Source of the keplerian elements: AFSPC